Madison, SD

5:16 AM CST on January 21, 2017 (GMT -0600)
Madison

Weather History for KMDS - January, 2014

Change the Weather History Date:

Wednesday, January 8, 2014

  Actual Average Record
Temperature  
Mean Temperature 4 °F -  
Max Temperature 12 °F 18 °F 41 °F (2012)
Min Temperature -4 °F -1 °F -4 °F (2014)
Degree Days  
Heating Degree Days 61    
Moisture  
Dew Point 1 °F    
Average Humidity 87    
Maximum Humidity 100    
Minimum Humidity 72    
Precipitation  
Precipitation 0.00 in - - ()
Sea Level Pressure  
Sea Level Pressure 30.28 in    
Wind  
Wind Speed 5 mph (SSE)    
Max Wind Speed 18 mph    
Max Gust Speed 24 mph    
Visibility 10 miles    
Events      
Averages and records for this station are not official NWS values.
T = Trace of Precipitation, MM = Missing Value Source: NWS Daily Summary

Daily Weather History Graph

Daily Weather History Graph

Search for Another Location

Airport or City:

Trip Planner

Search our weather history database for the weather conditions in past years. The results will help you decide how hot, cold, wet, or windy it might be!

Date:

Astronomy

Jan. 08, 2014 Rise Set
Actual Time 8:02 AM CST 5:08 PM CST
Civil Twilight 7:29 AM CST 5:40 PM CST
Nautical Twilight 6:53 AM CST 6:16 PM CST
Astronomical Twilight 6:19 AM CST 6:51 PM CST
Moon 12:07 PM CST (1/8) 1:01 AM CST (1/8)
Length of Visible Light 10h 10m
Length of Day
9h 05m
First Quarter, 56% of the Moon is Illuminated
Jan 8
First Quarter
Jan 15
Full
Jan 23
Last Quarter
Jan 30
New
Feb 6
First Quarter

Hourly Weather History & Observations

Time (CST) Temp. Windchill Dew Point Humidity Pressure Visibility Wind Dir Wind Speed Gust Speed Precip Events Conditions
12:05 AM 1.4 °F -8.3 °F -0.4 °F 92% 30.20 in 10.0 mi NNW 4.6 mph - N/A   Overcast
12:25 AM -0.4 °F -12.0 °F -0.4 °F 100% 30.20 in 10.0 mi NNW 5.8 mph - N/A   Overcast
12:45 AM -0.4 °F -12.0 °F -2.2 °F 92% 30.21 in 10.0 mi NNW 5.8 mph - N/A   Mostly Cloudy
1:05 AM -0.4 °F -12.0 °F -2.2 °F 92% 30.21 in 10.0 mi NNW 5.8 mph - N/A   Overcast
1:25 AM -0.4 °F -12.0 °F -2.2 °F 92% 30.21 in 10.0 mi NNW 5.8 mph - N/A   Mostly Cloudy
1:50 AM -2.2 °F -10.4 °F -4.0 °F 92% 30.22 in 10.0 mi North 3.5 mph - N/A   Clear
2:05 AM -2.2 °F - -4.0 °F 92% 30.22 in 10.0 mi Calm Calm - N/A   Mostly Cloudy
2:30 AM -0.4 °F -8.3 °F -2.2 °F 92% 30.23 in 10.0 mi NNW 3.5 mph - N/A   Overcast
2:45 AM -0.4 °F - -2.2 °F 92% 30.24 in 10.0 mi Calm Calm - N/A   Overcast
3:05 AM -0.4 °F -8.3 °F -0.4 °F 100% 30.24 in 10.0 mi NNE 3.5 mph - N/A   Overcast
3:25 AM -0.4 °F - -0.4 °F 100% 30.24 in 10.0 mi Calm Calm - N/A   Overcast
3:45 AM -0.4 °F - -0.4 °F 100% 30.24 in 10.0 mi Calm Calm - N/A   Overcast
4:05 AM -0.4 °F - -2.2 °F 92% 30.24 in 10.0 mi Calm Calm - N/A   Overcast
4:25 AM -0.4 °F -8.3 °F -0.4 °F 100% 30.25 in 10.0 mi SW 3.5 mph - N/A   Overcast
4:45 AM -0.4 °F - -0.4 °F 100% 30.25 in 10.0 mi Calm Calm - N/A   Overcast
5:05 AM -0.4 °F - -0.4 °F 100% 30.26 in 10.0 mi Calm Calm - N/A   Overcast
5:25 AM -0.4 °F -8.3 °F -0.4 °F 100% 30.27 in 10.0 mi WNW 3.5 mph - N/A   Overcast
5:50 AM -0.4 °F -8.3 °F -0.4 °F 100% 30.26 in 10.0 mi WNW 3.5 mph - N/A   Overcast
6:05 AM -0.4 °F -12.0 °F -2.2 °F 92% 30.26 in 10.0 mi WNW 5.8 mph - N/A   Overcast
6:30 AM -0.4 °F -12.0 °F -2.2 °F 92% 30.26 in 10.0 mi NNW 5.8 mph - N/A   Partly Cloudy
6:45 AM -2.2 °F -15.6 °F -4.0 °F 92% 30.26 in 10.0 mi NW 6.9 mph - N/A   Clear
7:05 AM -2.2 °F -15.6 °F -4.0 °F 92% 30.27 in 10.0 mi NNW 6.9 mph - N/A   Clear
7:25 AM -4.0 °F -14.6 °F -4.0 °F 100% 30.28 in 10.0 mi NW 4.6 mph - N/A   Clear
7:45 AM -2.2 °F -14.2 °F -4.0 °F 92% 30.29 in 10.0 mi NNW 5.8 mph - N/A   Clear
8:05 AM -4.0 °F - -4.0 °F 100% 30.30 in 10.0 mi Calm Calm - N/A   Clear
8:25 AM -2.2 °F - -4.0 °F 92% 30.30 in 10.0 mi Calm Calm - N/A   Clear
8:45 AM -2.2 °F - -4.0 °F 92% 30.31 in 10.0 mi Calm Calm - N/A   Clear
9:05 AM -2.2 °F - -2.2 °F 100% 30.32 in 10.0 mi Calm Calm - N/A   Clear
9:25 AM -0.4 °F - -2.2 °F 92% 30.32 in 10.0 mi Calm Calm - N/A   Partly Cloudy
9:50 AM 1.4 °F - -2.2 °F 85% 30.33 in 10.0 mi Calm Calm - N/A   Mostly Cloudy
10:05 AM 1.4 °F - -0.4 °F 92% 30.34 in 10.0 mi Calm Calm - N/A   Mostly Cloudy
10:30 AM 1.4 °F - -0.4 °F 92% 30.35 in 10.0 mi Calm Calm - N/A   Scattered Clouds
10:45 AM 1.4 °F -6.2 °F -0.4 °F 92% 30.35 in 10.0 mi East 3.5 mph - N/A   Mostly Cloudy
11:05 AM 3.2 °F -4.2 °F -0.4 °F 85% 30.35 in 10.0 mi East 3.5 mph - N/A   Overcast
11:25 AM 5.0 °F - -0.4 °F 78% 30.35 in 10.0 mi Calm Calm - N/A   Overcast
11:45 AM 5.0 °F -2.1 °F -0.4 °F 78% 30.34 in 10.0 mi East 3.5 mph - N/A   Overcast
12:05 PM 5.0 °F - -0.4 °F 78% 30.34 in 10.0 mi Calm Calm - N/A   Overcast
12:25 PM 5.0 °F - -0.4 °F 78% 30.33 in 10.0 mi Calm Calm - N/A   Overcast
12:45 PM 6.8 °F -3.5 °F -0.4 °F 72% 30.32 in 10.0 mi South 5.8 mph - N/A   Mostly Cloudy
1:05 PM 6.8 °F -2.0 °F -0.4 °F 72% 30.31 in 10.0 mi SSE 4.6 mph - N/A   Partly Cloudy
1:30 PM 6.8 °F -4.8 °F -0.4 °F 72% 30.31 in 10.0 mi South 6.9 mph - N/A   Clear
1:45 PM 6.8 °F -3.5 °F -0.4 °F 72% 30.31 in 10.0 mi SSE 5.8 mph - N/A   Clear
2:10 PM 6.8 °F -4.8 °F -0.4 °F 72% 30.31 in 10.0 mi SSE 6.9 mph - N/A   Mostly Cloudy
2:25 PM 6.8 °F -4.8 °F -0.4 °F 72% 30.31 in 10.0 mi SSE 6.9 mph - N/A   Overcast
2:50 PM 6.8 °F -3.5 °F -0.4 °F 72% 30.31 in 10.0 mi ESE 5.8 mph - N/A   Overcast
3:05 PM 6.8 °F -4.8 °F 1.4 °F 79% 30.31 in 10.0 mi SE 6.9 mph - N/A   Overcast
3:25 PM 6.8 °F -6.9 °F -0.4 °F 72% 30.30 in 10.0 mi SSE 9.2 mph - N/A   Overcast
3:45 PM 6.8 °F -6.9 °F 1.4 °F 79% 30.30 in 10.0 mi SSE 9.2 mph - N/A   Overcast
4:05 PM 6.8 °F -6.9 °F 1.4 °F 79% 30.30 in 10.0 mi SSE 9.2 mph - N/A   Overcast
4:25 PM 6.8 °F -6.9 °F 1.4 °F 79% 30.29 in 10.0 mi SSE 9.2 mph - N/A   Overcast
4:45 PM 6.8 °F -6.9 °F 1.4 °F 79% 30.29 in 10.0 mi SSE 9.2 mph - N/A   Overcast
5:05 PM 6.8 °F -7.8 °F 1.4 °F 79% 30.29 in 10.0 mi SSE 10.4 mph - N/A   Overcast
5:25 PM 6.8 °F -6.9 °F 1.4 °F 79% 30.29 in 10.0 mi SSE 9.2 mph - N/A   Overcast
5:45 PM 6.8 °F -6.9 °F 1.4 °F 79% 30.29 in 10.0 mi SSE 9.2 mph - N/A   Overcast
6:10 PM 6.8 °F -6.9 °F 1.4 °F 79% 30.28 in 10.0 mi SSE 9.2 mph - N/A   Overcast
6:25 PM 6.8 °F -6.9 °F 1.4 °F 79% 30.28 in 10.0 mi SSE 9.2 mph - N/A   Overcast
6:45 PM 6.8 °F -8.6 °F 3.2 °F 85% 30.28 in 10.0 mi SSE 11.5 mph - N/A   Overcast
7:05 PM 6.8 °F -8.6 °F 3.2 °F 85% 30.27 in 10.0 mi SSE 11.5 mph - N/A   Overcast
7:25 PM 6.8 °F -7.8 °F 3.2 °F 85% 30.27 in 10.0 mi SSE 10.4 mph - N/A   Overcast
7:45 PM 6.8 °F -9.3 °F 5.0 °F 92% 30.26 in 10.0 mi SSE 12.7 mph - N/A   Overcast
8:05 PM 6.8 °F -7.8 °F 5.0 °F 92% 30.26 in 10.0 mi SSE 10.4 mph 17.3 mph N/A   Overcast
8:25 PM 6.8 °F -9.3 °F 5.0 °F 92% 30.26 in 10.0 mi SSE 12.7 mph - N/A   Overcast
8:45 PM 8.6 °F -6.3 °F 5.0 °F 85% 30.26 in 10.0 mi South 11.5 mph - N/A   Overcast
9:05 PM 8.6 °F -7.7 °F 5.0 °F 85% 30.25 in 10.0 mi SSE 13.8 mph - N/A   Overcast
9:25 PM 8.6 °F -7.7 °F 6.8 °F 92% 30.25 in 10.0 mi South 13.8 mph - N/A   Overcast
9:50 PM 8.6 °F -7.0 °F 6.8 °F 92% 30.25 in 10.0 mi South 12.7 mph - N/A   Overcast
10:05 PM 8.6 °F -7.7 °F 6.8 °F 92% 30.24 in 10.0 mi South 13.8 mph - N/A   Overcast
10:25 PM 10.4 °F -4.1 °F 8.6 °F 92% 30.24 in 10.0 mi South 11.5 mph - N/A   Overcast
10:50 PM 12.2 °F -3.7 °F 8.6 °F 85% 30.23 in 10.0 mi South 15.0 mph - N/A   Overcast
11:05 PM 12.2 °F -4.8 °F 8.6 °F 85% 30.22 in 10.0 mi South 17.3 mph 21.9 mph N/A   Overcast
11:25 PM 12.2 °F -4.8 °F 8.6 °F 85% 30.22 in 10.0 mi South 17.3 mph 24.2 mph N/A   Overcast
11:45 PM 12.2 °F -5.3 °F 8.6 °F 85% 30.21 in 10.0 mi South 18.4 mph - N/A   Overcast